Location: Unspecified
(54.1780°N, 0.0000°E)
Time: 19:00:38
(UTC+00:00)

Explorer 7 - Pass Details

Date: 21 June 2019
Orbit: 485 x 680 km, 50.3° (Epoch: 18 July)

Event Time Altitude Azimuth Distance (km) Brightness Sun altitude
Rises 08:36:29 0° 196° (SSW) 2,773 10.4 41.2°
Reaches altitude 10° 08:39:34 10° 172° (S) 1,924 10.0 41.6°
Maximum altitude 08:41:59 15° 139° (SE) 1,680 10.3 41.9°
Drops below altitude 10° 08:44:28 10° 106° (ESE) 1,998 10.8 42.3°
Sets 08:47:46 0° 83° (E) 2,951 11.2 42.7°
